Location: Vassar Physics Lab
(41.6843°N, 73.8954°W)
Time: 17:14:28
(UTC-04:00)

Daily predictions for brighter satellites

Satellite Brightness Start Highest point End
(mag) Time Altitude Azimuth Time Altitude Azimuth Time Altitude Azimuth
ERS-1 Rocket 3.2 20:44:28 10° SSE 20:49:24 57° ENE 20:54:20 10° N
Cosmos 1869 Rocket 4.1 20:46:26 10° SSW 20:50:48 65° W 20:55:10 10° N
H-2A R/B 2.8 20:48:13 10° SE 20:52:11 36° ENE 20:56:05 10° N
Cosmos 1356 Rocket 3.9 20:49:40 10° SSE 20:53:38 42° E 20:57:40 10° NNE
ALOS 3.3 20:52:10 10° S 20:56:41 49° W 21:01:14 10° NNW
Resurs 01 Rocket 4.4 20:54:13 10° SW 20:57:07 17° W 21:00:04 10° NW
Cosmos 389 Rocket 4.4 20:54:24 10° NNW 20:57:30 31° W 21:00:36 10° SSW
ATLAS 5 CENTAUR R/B 2.8 20:53:06 10° NNW 20:58:55 53° NE 21:05:10 10° SE
USA 234 4.3 21:00:02 10° ENE 21:04:46 21° ESE 21:09:29 10° S
Cosmos 2278 Rocket 3.8 21:02:32 10° SE 21:05:26 14° E 21:08:20 10° ENE
PSLV R/B 3.3 21:07:07 10° W 21:10:34 73° S 21:13:55 11° ESE
Meteor 2-3 Rocket 3.9 21:07:25 10° SSW 21:13:03 77° W 21:18:41 10° N
Okean 1-7 4.1 21:09:15 10° NNW 21:13:20 45° W 21:17:27 10° SSW
Abrixas rocket 2.8 21:10:45 10° WNW 21:14:04 50° SW 21:16:55 13° SE
CZ-4 DEB 4.0 21:13:38 10° S 21:16:38 40° W 21:19:40 10° NNW
Cosmos 1844 Rocket 3.1 21:13:32 10° S 21:18:45 39° ESE 21:23:58 10° NE
Cosmos 2056 Rocket 3.5 21:13:54 10° S 21:18:58 59° ESE 21:24:01 10° NNE
Meteor 1-27 Rocket 4.3 21:14:34 10° N 21:19:47 38° ENE 21:24:14 13° SE
Cosmos 1674 Rocket 3.8 21:16:22 10° N 21:20:46 53° E 21:24:53 11° SSE
Cosmos 1371 Rocket 4.0 21:15:36 10° SSW 21:20:55 84° ESE 21:26:15 10° NNE
Cosmos 1825 3.7 21:19:37 14° SE 21:21:32 19° E 21:24:19 10° NE
Cosmos 2082 Rocket 4.4 21:20:53 10° NNE 21:23:04 12° NE 21:25:15 10° ENE
Cosmos 1340 Rocket 3.6 21:19:17 10° SSW 21:23:11 55° WNW 21:27:09 10° N
Cosmos 1939 Rocket 2.8 21:22:09 10° S 21:26:00 80° WSW 21:29:55 10° NNW
Cosmos 1461 4.0 21:21:48 10° SW 21:26:24 55° NW 21:30:52 10° NNE
Atlas Centaur 2 2.9 21:26:41 10° SSW 21:28:39 14° S 21:29:21 13° SSE
Cosmos 1782 2.8 21:25:25 10° N 21:29:25 64° E 21:32:54 13° SSE
Cosmos 2263 Rocket 4.0 21:28:26 10° SW 21:33:37 36° WNW 21:38:48 10° N
CENTAUR R/B 3.3 21:28:07 10° NW 21:35:59 75° WSW 21:43:29 13° SSE
COSMOS 2487 4.4 21:35:34 10° NNE 21:38:11 18° ENE 21:39:40 15° E
MetOp-A 4.2 21:35:01 14° SSE 21:39:38 69° ENE 21:44:58 10° N
Cosmos 2154 Rocket 4.1 21:33:57 10° S 21:40:01 57° E 21:46:04 10° NNE
SL-27 R/B 2.5 21:36:36 10° NNW 21:40:17 74° ENE 21:42:35 21° SSE
YAOGAN 6 2.7 21:40:07 21° SE 21:42:12 53° ENE 21:45:38 10° N
SL-8 R/B 3.6 21:37:44 10° SW 21:42:33 79° SSE 21:47:22 10° ENE
Cosmos 1408 3.4 21:40:58 22° SE 21:42:39 33° E 21:45:58 10° NNE
NOSS 2-2 (D) 3.6 21:40:17 10° SW 21:44:23 84° NW 21:49:12 10° NE
Coronas F rocket 3.3 21:43:01 10° SW 21:45:23 28° WNW 21:47:45 10° NNW
Cosmos 2184 Rocket 4.4 21:41:10 10° SSW 21:47:16 65° W 21:53:25 10° N
deb Chang Zheng 4 4.2 21:43:18 10° N 21:47:39 60° WNW 21:52:00 10° SSW
COS B Rocket 3.3 21:43:41 10° N 21:47:58 72° E 21:50:52 18° S
Cosmos 1975 Rocket 3.9 21:44:24 10° N 21:48:21 33° ENE 21:50:14 23° ESE
SL-08 RB Rocket 4.5 21:46:49 21° SE 21:49:19 38° ENE 21:53:35 10° N
Cosmos 1606 2.7 21:48:06 10° N 21:52:03 70° E 21:54:20 24° SSE
Okean 3 3.9 21:51:31 10° N 21:55:41 47° ENE 21:57:39 27° SE
Cosmos 1908 Rocket 3.5 21:53:55 13° S 21:57:49 80° E 22:02:16 10° N
H-2A R/B 3.1 21:56:03 20° ESE 21:58:50 32° ENE 22:03:32 10° N
NOSS 2-2 (C) 4.1 21:55:02 10° SW 21:59:06 61° NW 22:03:54 10° NNE
Envisat 3.8 21:54:24 10° S 21:59:17 47° W 22:04:12 10° NNW
USA 245 2.8 21:58:30 38° SE 21:59:27 62° ENE 22:02:59 10° N
Cosmos 1242 Rocket 3.6 21:59:18 10° NNE 22:02:31 29° ENE 22:03:15 27° E
Cosmos 1733 Rocket 4.5 21:59:56 10° SW 22:04:03 38° WNW 22:08:11 10° N
Cosmos 1378 Rocket 3.4 22:01:28 10° N 22:05:48 82° E 22:08:06 27° SSE
CZ-4 SHROUD 4.0 22:08:16 25° SSW 22:09:45 46° W 22:12:45 10° NNW
TIMED 4.4 22:06:09 13° SSW 22:09:58 76° ESE 22:14:20 10° NNE
Intercosmos 25 3.5 22:12:07 38° SE 22:13:02 47° E 22:16:11 10° NNE
SPOT 1/Viking Rocket 3.5 22:10:27 24° SSE 22:13:41 88° WSW 22:18:56 10° NNW
ERBS 3.3 22:12:33 10° WNW 22:15:46 36° SW 22:16:36 31° SSW
Cosmos 407 Rocket 3.9 22:13:30 10° NNW 22:18:41 61° WSW 22:21:52 23° S
Cosmos 1238 Rocket 2.4 22:18:00 10° NNW 22:21:04 69° W 22:21:59 43° SSW
Cosmos 1452 Rocket 3.5 22:17:00 10° SSW 22:22:16 88° WNW 22:27:35 10° NNE
Landsat 7 3.9 22:21:42 35° SE 22:23:30 60° ENE 22:28:11 10° N
SPOT 5 4.2 22:19:21 12° SSW 22:23:45 40° W 22:28:46 10° NNW
H-2A R/B 4.3 22:25:03 10° SW 22:28:16 20° W 22:31:28 10° NW
BREEZE-M TANK 4.0 22:18:00 10° W 22:32:37 64° N 22:35:56 14° ENE
Cosmos 2084 3.0 22:32:18 58° SSE 22:32:43 64° ESE 22:36:32 10° NE
Cosmos 614 Rocket 4.4 22:30:09 10° N 22:35:04 46° ENE 22:36:32 36° ESE
Spot 4 4.5 22:34:20 35° ESE 22:35:37 42° ENE 22:40:12 10° N
Cosmos 2218 Rocket 4.1 22:32:39 31° SSE 22:35:41 61° E 22:41:59 10° NNE
Cosmos 1140 Rocket 3.4 22:30:44 10° NNW 22:35:53 73° ENE 22:37:36 42° SE
Cosmos 1862 4.5 22:33:23 15° SW 22:36:28 41° WNW 22:40:22 10° N
Terra 1.9 22:37:59 44° SE 22:39:15 60° ENE 22:43:57 10° N
ARGOS 3.6 22:38:34 27° S 22:41:25 57° W 22:46:42 10° NNW
DMSP B5D2-2 4.2 22:36:39 10° NNE 22:41:47 56° E 22:43:08 43° SSE
ATLAS 5 CENTAUR R/B 3.7 22:38:13 10° NW 22:43:29 31° WSW 22:46:55 19° SSW
DELTA 2 DEB (DPAF) 4.1 22:42:46 49° S 22:43:58 85° WSW 22:48:28 10° NNW
Okean 2 Rocket 3.4 22:42:45 30° SSW 22:44:50 65° W 22:49:14 10° N
USA 234 3.1 22:41:47 10° NE 22:48:21 83° SE 22:54:53 10° SW
Cosmos 2278 Rocket 2.3 22:43:31 12° SSW 22:48:45 78° WNW 22:54:28 10° NNE
CZ-4B R/B 4.4 22:45:50 10° N 22:50:36 45° WNW 22:54:54 12° SW
Cosmos 1727 Rocket 4.0 22:47:23 10° N 22:53:30 63° E 22:55:27 43° SE
CZ-4C R/B 3.4 22:54:26 57° SW 22:54:51 62° WSW 22:58:48 10° NNW
Cosmos 1833 Rocket 3.4 22:50:22 10° NNW 22:55:42 42° ENE 22:57:19 34° E
Cosmos 1850 Rocket 3.9 22:50:42 10° NNW 22:56:03 83° ENE 22:57:23 52° SSE
Cosmos 1825 4.2 22:54:31 14° SW 22:56:59 26° WNW 23:00:15 10° NNW
Cosmos 1959 Rocket 4.4 22:58:48 34° S 23:01:39 85° W 23:07:48 10° N
Cosmos 1844 Rocket 4.4 22:57:43 10° WSW 23:02:42 31° NW 23:07:42 10° N
Timation 2 Rocket 3.8 22:57:33 10° NNW 23:03:35 83° WSW 23:05:20 48° SSE
Cosmos 1812 3.5 23:01:41 10° N 23:04:51 40° NE 23:04:51 40° NE
Cosmos 2082 Rocket 2.3 23:02:37 10° NNW 23:08:19 66° ENE 23:09:37 51° ESE
COSMOS 2487 4.1 23:10:43 10° NW 23:13:44 27° W 23:13:44 27° W
Cosmos 1741 Rocket 4.0 23:08:42 10° NNW 23:13:55 71° WSW 23:14:51 57° SSW
IGS 5A 3.8 23:17:59 54° WSW 23:18:08 55° W 23:22:15 10° NNW
Cosmos 2297 3.6 23:16:56 42° SSW 23:18:59 86° WNW 23:24:46 10° NNE
DNEPR-1 R/B 3.7 23:14:59 10° NW 23:20:20 69° WSW 23:20:38 66° SW
APEX 3.7 23:22:47 58° W 23:23:12 62° WNW 23:28:01 10° NNE
Cosmos 1339 Rocket 4.4 23:17:41 10° N 23:23:51 89° E 23:25:21 55° S
Cosmos 1821 Rocket 4.4 23:31:30 42° ESE 23:32:07 43° E 23:37:59 10° NNE
Cosmos 1331 Rocket 4.2 23:33:49 54° E 23:33:49 54° E 23:38:26 10° NNE
USA 229 DEB 3.7 23:26:33 10° NNW 23:33:42 80° NE 23:35:48 50° SE
USA 229 3.8 23:26:39 10° NNW 23:33:48 79° NE 23:35:55 50° SE
Cosmos 1110 Rocket 3.9 23:36:09 69° E 23:36:09 69° E 23:41:15 10° NNE
CZ-4B R/B 4.2 23:38:42 11° NE 23:38:42 11° NE 23:38:58 10° NE
H-2A R/B 3.3 23:36:42 29° SW 23:38:09 34° W 23:43:01 10° NNW
Cosmos 1536 Rocket 4.2 23:34:38 10° NNW 23:38:56 46° W 23:39:02 46° W
Okean 1 3.8 23:35:21 10° N 23:38:43 59° NNW 23:38:43 59° NNW
Iridium 4 Rocket 3.9 23:43:23 10° N 23:49:09 62° E 23:49:35 60° ESE
Cosmos 1934 Rocket 4.1 23:52:21 51° E 23:52:38 52° E 23:58:28 10° NNE
